Hourly Data Report for July 08, 2017

TORONTO CITY
ONTARIO

43°40'00.000" N
79°24'00.000" W
112.50 m
6158355
71508
XTO

Download Data

Hourly Data (July 2017)
Hourly Data Report for July 8, 2017
TIME
LST
Temp Definition
°C
Dew Point Definition
°C
Rel Hum Definition
%
Precip. Amount Definition
mm

Wind Dir Definition
10's deg

Wind Spd Definition
km/h
Visibility Definition
km
Stn Press Definition
kPa
Hmdx Definition


Wind Chill Definition


Weather Definition


00:00 20.7 17.2 80 0.0 LegendMM LegendMM   99.23 26   LegendNANA
01:00 20.9 16.1 74 0.0 LegendMM LegendMM   99.22 26   LegendNANA
02:00 19.7 16.1 80 0.0 LegendMM LegendMM   99.25     LegendNANA
03:00 19.5 16.4 82 0.0 LegendMM LegendMM   99.20     LegendNANA
04:00 19.3 16.0 81 0.0 LegendMM LegendMM   99.25     LegendNANA
05:00 18.5 14.9 80 0.0 LegendMM LegendMM   99.30     LegendNANA
06:00 18.0 14.1 78 0.0 LegendMM LegendMM   99.38     LegendNANA
07:00 18.2 14.1 77 0.0 LegendMM LegendMM   99.45     LegendNANA
08:00 20.0 14.2 69 0.0 LegendMM LegendMM   99.52     LegendNANA
09:00 20.7 13.2 62 0.0 LegendMM LegendMM   99.59     LegendNANA
10:00 21.0 11.4 54 0.0 LegendMM LegendMM   99.65     LegendNANA
11:00 21.7 11.3 52 0.0 LegendMM LegendMM   99.69     LegendNANA
12:00 22.8 8.8 41 0.0 LegendMM LegendMM   99.70     LegendNANA
13:00 22.8 7.5 37 0.0 LegendMM LegendMM   99.73     LegendNANA
14:00 22.8 6.8 36 0.0 LegendMM LegendMM   99.73     LegendNANA
15:00 23.7 7.1 35 0.0 LegendMM LegendMM   99.75     LegendNANA
16:00 23.6 6.9 34 0.0 LegendMM LegendMM   99.74     LegendNANA
17:00 23.5 7.1 35 0.0 LegendMM LegendMM   99.74     LegendNANA
18:00 23.1 7.2 36 0.0 LegendMM LegendMM   99.78     LegendNANA
19:00 22.7 8.0 39 0.0 LegendMM LegendMM   99.82     LegendNANA
20:00 21.6 6.5 38 0.0 LegendMM LegendMM   99.87     LegendNANA
21:00 20.2 6.6 41 0.0 LegendMM LegendMM   99.93     LegendNANA
22:00 19.0 7.7 48 0.0 LegendMM LegendMM   99.98     LegendNANA
23:00 17.7 7.0 49 0.0 LegendMM LegendMM   100.00     LegendNANA

Notes on Data Quality.

Legend

  • E = Estimated
  • M = Missing
  • NA = Not Available*
  • [empty] = Indicates an unobserved value
Date modified: